Wind_Speed
5 6 6 5 6 6 6 6 6 7 7 7 8 8 7 8 7 7 6 6 7 6 6 6 5 5 5 5 5 4 4 4 4 5 4 4 3 3 3 3 2 2 2
4 5 5 5 5 5 6 5 6 6 6 6 7 6 6 6 7 7 6 6 6 6 5 5 5 5 5 5 5 5 4 3 3 4 3 3 3 2 2 3 2 2 2
4 4 5 5 4 4 5 5 5 5 5 5 5 5 5 5 6 7 6 5 4 4 5 5 4 5 5 5 5 5 4 3 3 3 3 3 3 3 2 3 3 2 2
4 4 4 4 4 4 4 5 5 5 5 4 4 4 5 5 5 6 6 5 4 4 4 4 4 5 5 5 5 5 4 4 4 4 4 3 3 3 3 3 3 3 3
4 3 3 3 3 3 4 5 4 4 4 4 4 4 4 5 4 4 5 5 4 4 4 4 4 4 4 5 5 5 5 4 4 4 4 4 3 2 2 3 3 4 3
4 3 3 3 3 3 3 3 3 3 3 3 3 4 4 4 4 4 4 4 4 4 4 4 4 5 5 5 6 5 5 4 4 4 4 4 4 3 3 3 3 4 4
4 4 3 2 2 2 2 2 2 2 2 3 3 4 4 4 3 3 3 4 5 5 5 5 5 5 5 5 6 6 5 5 5 4 4 5 5 5 4 4 4 5 5
4 3 3 3 2 2 1 1 1 1 2 2 3 3 4 4 3 3 3 4 4 5 5 5 5 5 6 6 6 6 6 5 5 6 5 5 5 6 6 6 5 5 5
4 3 3 2 2 1 1 0 0 1 2 2 3 3 4 4 4 4 4 4 5 5 6 6 6 6 6 6 6 7 6 6 6 6 5 5 5 6 7 7 5 5 6
4 3 3 2 2 1 1 1 1 2 2 3 3 4 4 4 4 5 5 5 5 6 6 6 6 6 7 6 7 7 7 6 6 6 6 6 6 6 7 7 7 6 7
5 4 3 3 3 3 2 2 2 3 3 3 3 3 4 4 5 5 5 5 5 6 7 7 7 8 8 8 8 8 8 8 8 7 7 7 7 7 7 7 7 7 7
6 6 4 3 3 3 3 3 3 3 4 4 4 4 4 4 5 5 5 6 6 6 7 8 8 9 10 10 10 10 10 10 9 9 8 8 8 8 7 8 8 8 8
7 6 5 4 4 4 4 5 4 3 4 4 4 4 4 4 5 5 6 7 7 7 7 8 9 9 10 11 11 11 12 11 10 9 9 8 9 9 9 9 9 9 9
8 7 5 5 6 5 5 5 6 5 5 5 5 5 5 5 5 5 6 7 7 7 8 8 9 9 10 10 10 11 11 10 10 9 10 10 10 10 10 10 10 10 11
8 7 7 6 6 6 6 6 6 6 6 6 6 6 6 6 7 7 7 7 7 8 8 9 10 10 10 10 10 10 10 10 10 9 10 11 12 12 11 11 11 12 12
8 8 7 7 7 7 6 7 7 6 6 6 6 7 7 7 8 8 8 8 8 9 9 9 9 10 10 11 11 12 12 12 11 11 10 11 12 13 13 13 13 13 13
9 8 8 7 8 8 7 7 7 7 6 6 7 8 8 8 8 8 9 9 10 10 9 9 10 10 11 11 11 12 12 12 12 12 11 11 11 12 13 13 13 14 14
10 9 8 8 8 8 8 8 7 7 7 7 8 8 8 8 9 9 9 10 10 10 10 11 11 12 12 12 12 13 13 12 12 13 12 12 12 12 12 13 13 13 13
9 9 8 8 8 8 8 9 9 8 8 9 9 9 9 10 10 10 10 10 10 10 11 11 11 12 12 13 13 13 13 13 14 14 13 13 13 13 13 13 14 14 14
9 9 8 8 8 9 9 9 10 9 9 9 10 10 10 10 10 10 10 11 11 11 11 11 11 11 12 13 13 14 14 14 15 15 14 14 14 14 14 14 14 13 14
9 9 8 8 9 9 9 9 10 10 10 11 11 10 10 10 10 10 10 11 11 11 11 11 11 11 12 13 15 15 15 15 15 15 15 15 15 15 15 15 14 14 14
9 10 9 9 9 9 9 9 10 11 11 11 11 10 10 10 11 11 11 11 11 11 11 11 11 11 11 13 14 15 15 16 16 15 15 15 16 16 16 16 16 15 15
10 9 9 9 10 10 10 11 11 11 11 11 12 12 12 12 12 12 12 12 11 10 10 11 11 12 12 12 13 13 14 16 17 17 16 16 16 16 16 16 16 16 16
10 9 9 10 10 11 11 12 11 11 12 13 13 12 12 12 12 12 12 11 10 10 11 11 12 12 13 13 14 14 14 16 17 17 18 18 17 17 17 17 17 17 17
11 10 9 10 11 11 12 12 12 12 13 14 13 13 13 13 13 13 12 11 11 11 11 12 12 13 13 14 14 15 16 16 17 18 18 19 19 18 18 19 18 18 19
11 11 11 11 12 12 12 12 13 13 13 14 13 13 13 14 14 14 13 12 13 12 12 13 13 14 15 15 15 16 16 17 17 18 18 19 20 20 20 20 19 20 20
Wind_Direction
72 72 77 87 96 101 111 121 129 135 138 140 148 146 148 152 159 163 163 160 161 163 162 160 163 168 170 168 171 173 176 174 176 183 186 189 186 186 177 164 168 177 166
76 76 84 90 98 107 114 126 136 137 139 143 149 154 157 160 164 167 166 165 167 174 174 171 171 172 167 167 168 166 167 164 179 187 187 185 189 184 174 169 179 185 190
82 85 96 95 105 119 126 128 135 140 143 147 153 161 167 172 170 170 171 166 169 175 180 185 186 183 176 169 165 166 171 172 178 177 182 189 194 191 193 194 195 191 191
80 79 101 104 122 127 132 131 132 139 143 148 154 162 171 171 171 180 182 179 175 178 188 190 188 186 184 182 175 175 180 174 184 188 193 193 191 200 213 204 199 207 212
74 82 98 100 103 116 131 135 136 136 142 144 147 159 171 175 174 181 184 184 183 184 188 189 187 192 193 192 190 186 180 183 190 201 208 206 194 197 203 198 208 223 233
67 68 77 92 74 98 117 125 136 130 140 148 157 162 166 169 176 183 182 192 193 190 194 202 202 205 208 202 196 200 196 200 207 217 221 218 213 220 218 228 230 234 240
61 58 63 74 68 82 111 130 147 162 163 172 174 180 183 183 187 193 199 198 198 203 208 212 216 214 217 215 207 207 206 215 218 225 236 234 227 231 233 235 239 239 238
62 62 53 60 67 74 70 101 158 203 206 208 209 206 207 206 210 214 214 210 209 213 216 222 227 227 226 225 217 213 215 218 227 239 245 246 245 236 232 238 243 241 235
50 43 42 47 52 56 33 309 245 262 261 252 244 235 227 225 227 231 225 223 222 225 226 228 231 233 229 235 231 223 223 230 242 253 253 249 242 234 234 239 246 246 232
33 30 31 27 15 13 8 328 303 291 280 268 265 264 254 245 238 238 231 229 232 236 237 234 233 238 235 240 240 232 229 231 245 255 259 257 247 240 237 240 246 245 237
24 16 14 9 0 352 347 324 302 300 295 283 273 271 261 254 252 253 243 241 242 245 246 244 243 242 243 245 244 241 238 243 246 253 251 251 249 246 244 245 247 245 240
23 16 10 10 358 348 353 345 319 304 303 298 285 284 274 261 257 262 257 256 258 258 255 255 253 249 249 249 248 247 245 251 251 249 247 245 245 246 250 252 251 250 247
21 16 19 15 4 359 4 357 346 326 323 317 306 303 295 283 273 267 263 262 262 263 262 259 259 257 253 255 256 254 251 260 261 253 249 246 246 248 251 255 253 252 250
16 11 14 14 7 1 356 351 342 330 325 317 311 306 300 298 296 288 280 275 269 266 262 260 259 259 259 261 261 257 257 266 269 261 250 248 251 255 256 256 255 257 255
10 7 0 1 357 353 345 342 339 335 333 324 311 303 297 300 302 298 290 285 282 281 278 272 264 261 262 264 263 261 260 266 271 263 256 254 255 257 260 259 256 259 261
6 8 3 356 353 349 344 342 342 335 330 326 317 314 308 304 302 300 297 291 289 286 284 277 270 265 263 263 262 262 262 265 269 267 261 258 258 258 260 260 257 260 263
358 3 357 352 351 347 346 343 341 337 329 327 320 316 314 311 307 303 298 294 290 287 283 280 274 268 265 265 262 263 265 265 268 265 265 263 261 260 260 259 260 261 262
355 354 352 350 348 344 347 347 344 343 338 331 325 322 315 311 307 303 300 298 293 290 287 283 278 272 270 269 264 261 263 265 269 267 264 265 263 262 261 261 262 263 267
356 355 354 352 349 348 351 348 351 346 338 333 329 326 320 316 312 306 303 302 300 294 290 287 282 277 274 272 267 264 262 263 266 266 265 268 265 262 261 261 262 263 264
351 352 353 352 351 350 351 350 349 344 339 333 329 325 321 319 315 308 304 300 298 296 293 291 284 278 276 271 270 268 264 264 266 267 265 266 263 263 263 263 267 265 266
352 350 348 347 347 346 344 342 343 343 340 337 333 329 326 323 320 315 310 301 296 294 292 293 291 282 279 274 272 271 267 265 267 268 263 263 264 264 263 262 265 266 267
348 350 350 348 344 344 343 342 344 344 344 343 341 334 329 326 323 318 314 308 301 297 294 293 290 287 285 283 276 272 270 267 265 266 263 264 263 263 262 262 263 264 267
345 345 348 350 347 344 342 342 344 345 344 344 343 340 334 327 323 319 317 313 305 301 296 293 291 290 289 288 285 280 271 267 266 266 263 263 265 265 262 262 262 264 265
341 342 342 344 344 344 343 342 343 343 341 340 338 336 333 334 331 324 320 316 305 300 297 296 297 296 293 290 286 283 279 274 268 266 264 264 266 266 264 263 263 264 265
334 335 336 338 338 338 339 338 339 340 338 338 337 335 333 333 332 329 326 321 315 307 300 300 301 297 294 290 287 284 281 279 273 268 267 267 267 267 265 262 261 263 265
331 332 333 335 334 334 333 333 334 334 336 337 337 333 331 329 328 328 327 322 317 312 307 304 303 299 297 294 289 286 283 282 276 272 270 269 268 267 265 264 263 264 265
Height
5880 5879 5878 5878 5878 5878 5878 5879 5879 5880 5881 5881 5882 5883 5884 5885 5886 5887 5888 5889 5890 5890 5891 5892 5893 5894 5894 5895 5896 5897 5898 5898 5899 5900 5901 5902 5902 5903 5904 5905 5905 5906 5907
5881 5880 5880 5880 5880 5880 5880 5880 5881 5881 5882 5883 5884 5885 5885 5886 5887 5887 5888 5889 5890 5891 5892 5892 5893 5894 5894 5895 5896 5897 5898 5899 5899 5900 5901 5902 5903 5903 5904 5905 5906 5906 5907
5881 5881 5881 5881 5881 5881 5882 5882 5882 5883 5884 5884 5885 5885 5886 5887 5887 5888 5889 5890 5891 5891 5892 5893 5893 5894 5895 5895 5896 5898 5898 5899 5900 5900 5901 5902 5903 5903 5904 5905 5905 5906 5907
5882 5882 5882 5882 5883 5883 5883 5883 5884 5884 5885 5885 5886 5886 5887 5887 5888 5889 5890 5891 5891 5892 5892 5893 5894 5894 5895 5896 5897 5898 5898 5899 5900 5900 5901 5902 5902 5903 5904 5904 5905 5906 5907
5884 5884 5883 5884 5884 5884 5884 5885 5885 5885 5885 5886 5886 5887 5887 5888 5888 5889 5890 5891 5891 5892 5893 5893 5894 5894 5895 5896 5897 5898 5898 5899 5900 5900 5901 5902 5902 5903 5903 5904 5905 5906 5906
5885 5884 5884 5885 5885 5885 5885 5885 5886 5886 5886 5886 5887 5887 5887 5888 5889 5890 5890 5891 5891 5892 5893 5893 5894 5894 5895 5895 5896 5897 5898 5899 5899 5900 5900 5900 5902 5903 5903 5904 5904 5905 5906
5885 5885 5885 5886 5886 5886 5886 5886 5886 5886 5886 5887 5887 5888 5888 5888 5889 5890 5890 5890 5891 5892 5892 5893 5893 5894 5894 5895 5896 5897 5897 5898 5899 5900 5900 5900 5901 5902 5903 5903 5904 5905 5905
5887 5886 5886 5886 5886 5886 5886 5886 5887 5887 5887 5887 5887 5888 5888 5888 5889 5889 5890 5890 5891 5891 5892 5893 5893 5894 5894 5895 5895 5896 5897 5897 5898 5899 5899 5900 5900 5901 5902 5903 5903 5904 5904
5887 5887 5887 5887 5887 5887 5887 5887 5887 5887 5887 5887 5887 5887 5888 5888 5888 5889 5889 5890 5890 5891 5891 5892 5892 5893 5894 5894 5894 5895 5896 5896 5897 5898 5898 5899 5899 5900 5901 5901 5902 5903 5903
5888 5888 5887 5887 5887 5887 5887 5887 5887 5887 5887 5887 5887 5887 5887 5888 5888 5888 5888 5889 5889 5890 5890 5891 5892 5892 5893 5893 5893 5894 5895 5895 5896 5897 5898 5898 5898 5899 5900 5900 5901 5902 5902
5889 5888 5888 5888 5888 5888 5888 5887 5887 5887 5887 5887 5887 5887 5887 5887 5887 5887 5888 5888 5888 5889 5889 5890 5890 5891 5892 5892 5892 5893 5893 5894 5895 5895 5896 5897 5897 5897 5898 5899 5900 5901 5901
5890 5889 5888 5888 5888 5888 5888 5887 5887 5887 5887 5887 5886 5886 5886 5886 5887 5887 5887 5887 5887 5888 5888 5888 5889 5889 5890 5891 5891 5891 5892 5893 5893 5894 5895 5895 5896 5896 5897 5898 5899 5899 5900
5891 5890 5889 5889 5888 5888 5888 5888 5887 5887 5887 5886 5886 5886 5886 5886 5886 5886 5886 5886 5886 5886 5887 5887 5887 5888 5888 5889 5889 5889 5890 5891 5892 5892 5893 5893 5894 5894 5895 5896 5897 5898 5899
5892 5891 5890 5890 5889 5888 5888 5888 5887 5887 5886 5886 5886 5885 5885 5885 5885 5885 5885 5885 5885 5885 5885 5885 5886 5886 5887 5887 5887 5888 5889 5889 5889 5890 5891 5891 5892 5893 5893 5894 5895 5896 5897
5893 5892 5891 5890 5890 5889 5888 5887 5887 5886 5886 5885 5885 5885 5885 5884 5884 5884 5884 5884 5883 5883 5883 5883 5884 5884 5885 5885 5885 5886 5886 5887 5887 5888 5888 5889 5890 5891 5891 5892 5893 5894 5894
5894 5893 5892 5891 5890 5889 5888 5887 5886 5886 5885 5885 5884 5884 5883 5883 5882 5882 5882 5882 5881 5881 5881 5881 5881 5882 5882 5883 5883 5884 5884 5885 5885 5886 5886 5886 5887 5888 5889 5889 5890 5891 5892
5894 5893 5892 5891 5890 5889 5888 5887 5886 5885 5884 5884 5883 5882 5882 5881 5881 5881 5880 5880 5879 5879 5879 5879 5879 5879 5880 5880 5881 5881 5882 5882 5883 5884 5884 5884 5885 5885 5886 5886 5887 5888 5889
5895 5893 5892 5891 5890 5889 5888 5887 5886 5885 5884 5883 5883 5882 5881 5880 5879 5879 5878 5878 5877 5877 5877 5876 5877 5877 5877 5877 5877 5878 5879 5880 5880 5881 5881 5882 5882 5883 5883 5884 5884 5885 5886
5896 5894 5893 5891 5890 5889 5888 5887 5886 5885 5884 5883 5882 5881 5880 5879 5878 5877 5876 5875 5875 5874 5874 5874 5874 5874 5874 5874 5874 5875 5876 5876 5877 5878 5878 5879 5879 5880 5880 5881 5881 5882 5883
5896 5894 5893 5892 5890 5889 5888 5887 5886 5885 5883 5882 5881 5880 5878 5877 5876 5875 5874 5873 5873 5872 5872 5871 5871 5871 5871 5871 5871 5872 5873 5873 5874 5874 5875 5876 5876 5877 5877 5878 5878 5879 5880
5896 5894 5893 5892 5891 5889 5888 5887 5886 5884 5883 5881 5880 5878 5877 5876 5874 5873 5872 5871 5870 5870 5869 5869 5868 5868 5868 5868 5868 5869 5869 5869 5870 5870 5871 5872 5873 5873 5874 5875 5875 5875 5876
5895 5894 5893 5892 5890 5889 5888 5886 5885 5884 5882 5881 5879 5877 5875 5874 5872 5871 5870 5869 5868 5867 5867 5866 5866 5866 5865 5865 5865 5865 5865 5866 5866 5866 5867 5868 5869 5869 5870 5870 5871 5871 5873
5895 5894 5893 5891 5890 5889 5887 5886 5884 5883 5881 5880 5878 5876 5874 5873 5871 5869 5868 5866 5865 5864 5864 5864 5864 5863 5863 5862 5861 5861 5862 5862 5862 5862 5863 5864 5864 5865 5866 5866 5866 5867 5869
5894 5893 5892 5891 5889 5888 5887 5885 5884 5882 5880 5879 5877 5875 5873 5871 5869 5867 5865 5864 5863 5862 5861 5861 5861 5860 5859 5859 5858 5858 5858 5857 5858 5858 5859 5859 5859 5860 5861 5862 5863 5864 5864
5893 5892 5891 5890 5889 5887 5886 5884 5883 5881 5879 5877 5875 5874 5872 5870 5868 5866 5864 5862 5860 5859 5859 5858 5858 5857 5856 5855 5855 5854 5854 5853 5853 5853 5854 5855 5855 5855 5856 5857 5858 5859 5860
5892 5891 5890 5889 5888 5886 5885 5883 5881 5880 5878 5876 5874 5872 5870 5868 5866 5864 5862 5860 5859 5858 5856 5856 5855 5853 5853 5852 5851 5850 5850 5849 5848 5848 5849 5849 5850 5850 5851 5852 5853 5854 5854